• In Germany
  • List of Countries
  • For 7 days
  • Water Temperature
  • Satellite Maps
  • Weather Map
  • Weather Widgets
  • user-avatar
    Login

    Hourly Weather Wlora

    Today, 21 February, Wednesday

    Time Temperature Precipitation Wind Pressure Humidity
    00:00 +8°C° 0.5 mm 9 mps 753 mmHg 80%
    01:00 +9°C° 0.5 mm 8 mps 753 mmHg 80%
    02:00 +9°C° 0.5 mm 8 mps 752 mmHg 80%
    03:00 +9°C° 0.5 mm 8 mps 752 mmHg 80%
    04:00 +9°C° 0.5 mm 8 mps 752 mmHg 80%
    05:00 +9°C° 0.6 mm 8 mps 752 mmHg 81%
    06:00 +9°C° 0.6 mm 8 mps 752 mmHg 81%
    07:00 +7°C° 0.6 mm 8 mps 752 mmHg 82%
    08:00 +9°C° 1 mm 8 mps 752 mmHg 81%
    09:00 +9°C° 1 mm 8 mps 752 mmHg 80%
    10:00 +10°C° 1 mm 7 mps 752 mmHg 79%
    11:00 +10°C° 1 mm 7 mps 752 mmHg 80%
    12:00 +10°C° 1 mm 7 mps 752 mmHg 80%
    13:00 +10°C° 1 mm 7 mps 752 mmHg 81%
    14:00 +10°C° 0.8 mm 7 mps 751 mmHg 83%
    15:00 +9°C° 0.8 mm 7 mps 751 mmHg 85%
    16:00 +9°C° 0.8 mm 7 mps 751 mmHg 88%
    17:00 +9°C° 0.9 mm 8 mps 751 mmHg 88%
    18:00 +9°C° 0.9 mm 8 mps 751 mmHg 88%
    19:00 +9°C° 0.9 mm 8 mps 751 mmHg 88%
    20:00 +9°C° 0.7 mm 8 mps 752 mmHg 87%
    21:00 +9°C° 0.7 mm 8 mps 752 mmHg 86%
    22:00 +9°C° 0.7 mm 8 mps 752 mmHg 84%
    23:00 +9°C° 0.8 mm 8 mps 752 mmHg 85%

    Tomorrow, 22 February, Thursday

    Time Temperature Precipitation Wind Pressure Humidity
    00:00 +9°C° 0.8 mm 8 mps 752 mmHg 86%
    01:00 +9°C° 0.8 mm 7 mps 753 mmHg 87%
    02:00 +9°C° 0.3 mm 7 mps 753 mmHg 87%
    03:00 +9°C° 0.3 mm 6 mps 753 mmHg 87%
    04:00 +9°C° 0.3 mm 5 mps 753 mmHg 87%
    05:00 +8°C° 0.1 mm 6 mps 753 mmHg 87%
    06:00 +8°C° 0.1 mm 6 mps 753 mmHg 86%
    07:00 +8°C° 0.1 mm 6 mps 753 mmHg 85%
    08:00 +10°C° 0 mm 6 mps 754 mmHg 79%
    09:00 +11°C° 0 mm 6 mps 754 mmHg 72%
    10:00 +14°C° 0 mm 7 mps 754 mmHg 66%
    11:00 +15°C° 0.1 mm 7 mps 754 mmHg 64%
    12:00 +15°C° 0.1 mm 7 mps 754 mmHg 63%
    13:00 +16°C° 0.1 mm 8 mps 754 mmHg 61%
    14:00 +15°C° 0.1 mm 8 mps 754 mmHg 63%
    15:00 +15°C° 0.1 mm 8 mps 754 mmHg 65%
    16:00 +15°C° 0.1 mm 8 mps 754 mmHg 68%
    17:00 +13°C° 0 mm 8 mps 754 mmHg 73%
    18:00 +12°C° 0 mm 8 mps 755 mmHg 78%
    19:00 +10°C° 0 mm 8 mps 755 mmHg 83%
    20:00 +10°C° 0 mm 8 mps 755 mmHg 84%
    21:00 +10°C° 0 mm 8 mps 755 mmHg 84%
    22:00 +10°C° 0 mm 8 mps 755 mmHg 85%
    23:00 +10°C° 0 mm 8 mps 755 mmHg 83%

    Day after tomorrow, 23 February, Friday

    Time Temperature Precipitation Wind Pressure Humidity
    00:00 +10°C° 0 mm 8 mps 755 mmHg 81%
    01:00 +9°C° 0 mm 8 mps 755 mmHg 79%
    02:00 +9°C° 0 mm 8 mps 755 mmHg 79%
    03:00 +9°C° 0 mm 8 mps 755 mmHg 78%
    04:00 +9°C° 0 mm 8 mps 754 mmHg 77%
    05:00 +9°C° 0 mm 8 mps 755 mmHg 77%
    06:00 +9°C° 0 mm 8 mps 755 mmHg 77%
    07:00 +9°C° 0 mm 8 mps 755 mmHg 77%
    08:00 +11°C° 0 mm 7 mps 755 mmHg 71%
    09:00 +12°C° 0 mm 7 mps 755 mmHg 66%
    10:00 +15°C° 0 mm 7 mps 756 mmHg 60%
    11:00 +16°C° 0 mm 7 mps 755 mmHg 56%
    12:00 +17°C° 0 mm 6 mps 755 mmHg 52%
    13:00 +19°C° 0 mm 6 mps 755 mmHg 48%
    14:00 +18°C° 0 mm 7 mps 754 mmHg 51%
    15:00 +17°C° 0 mm 7 mps 754 mmHg 55%
    16:00 +17°C° 0 mm 7 mps 753 mmHg 58%
    17:00 +16°C° 0 mm 8 mps 753 mmHg 62%
    18:00 +13°C° 0 mm 8 mps 753 mmHg 66%
    19:00 +12°C° 0 mm 9 mps 753 mmHg 71%
    20:00 +11°C° 0.1 mm 9 mps 753 mmHg 72%
    21:00 +11°C° 0.1 mm 9 mps 753 mmHg 73%
    22:00 +11°C° 0.1 mm 9 mps 753 mmHg 74%
    23:00 +11°C° 1.9 mm 8 mps 753 mmHg 74%

    24 February, Saturday

    Time Temperature Precipitation Wind Pressure Humidity
    00:00 +11°C° 1.9 mm 8 mps 753 mmHg 74%
    01:00 +11°C° 1.9 mm 8 mps 754 mmHg 74%
    02:00 +10°C° 1.3 mm 8 mps 754 mmHg 80%
    03:00 +10°C° 1.3 mm 8 mps 754 mmHg 87%
    04:00 +9°C° 1.3 mm 8 mps 755 mmHg 93%
    05:00 +9°C° 0.3 mm 7 mps 755 mmHg 91%
    06:00 +9°C° 0.3 mm 7 mps 755 mmHg 90%
    07:00 +9°C° 0.3 mm 6 mps 756 mmHg 88%
    08:00 +10°C° 0.1 mm 6 mps 756 mmHg 84%
    09:00 +12°C° 0.1 mm 5 mps 757 mmHg 81%
    10:00 +12°C° 0.1 mm 5 mps 757 mmHg 78%
    11:00 +13°C° 0.1 mm 4 mps 757 mmHg 73%
    12:00 +13°C° 0.1 mm 4 mps 757 mmHg 69%
    13:00 +14°C° 0.1 mm 4 mps 757 mmHg 64%
    14:00 +13°C° 0.1 mm 3 mps 757 mmHg 65%
    15:00 +13°C° 0.1 mm 3 mps 757 mmHg 67%
    16:00 +13°C° 0.1 mm 3 mps 757 mmHg 68%
    17:00 +12°C° 0.1 mm 3 mps 757 mmHg 73%
    18:00 +11°C° 0.1 mm 3 mps 757 mmHg 78%
    19:00 +10°C° 0.1 mm 3 mps 757 mmHg 83%
    20:00 +10°C° 0.1 mm 3 mps 757 mmHg 84%
    21:00 +9°C° 0.1 mm 3 mps 757 mmHg 85%
    22:00 +9°C° 0.1 mm 3 mps 758 mmHg 87%
    23:00 +8°C° 0.1 mm 4 mps 757 mmHg 88%

    25 February, Sunday

    Time Temperature Precipitation Wind Pressure Humidity
    00:00 +8°C° 0.1 mm 4 mps 757 mmHg 89%
    01:00 +7°C° 0.1 mm 4 mps 757 mmHg 89%
    02:00 +7°C° 0.2 mm 4 mps 757 mmHg 89%
    03:00 +7°C° 0.2 mm 4 mps 756 mmHg 88%
    04:00 +6°C° 0.2 mm 4 mps 756 mmHg 88%
    05:00 +6°C° 0.1 mm 4 mps 756 mmHg 86%
    06:00 +6°C° 0.1 mm 4 mps 756 mmHg 84%
    07:00 +6°C° 0.1 mm 4 mps 756 mmHg 82%
    08:00 +8°C° 0.2 mm 4 mps 756 mmHg 77%
    09:00 +11°C° 0.2 mm 4 mps 756 mmHg 71%
    10:00 +13°C° 0.2 mm 5 mps 756 mmHg 65%
    11:00 +13°C° 0.2 mm 4 mps 755 mmHg 64%
    12:00 +13°C° 0.2 mm 4 mps 755 mmHg 63%
    13:00 +13°C° 0.2 mm 4 mps 755 mmHg 62%
    14:00 +13°C° 0.1 mm 4 mps 754 mmHg 65%
    15:00 +12°C° 0.1 mm 4 mps 754 mmHg 67%
    16:00 +12°C° 0.1 mm 4 mps 754 mmHg 69%
    17:00 +11°C° 0.4 mm 4 mps 754 mmHg 74%
    18:00 +11°C° 0.4 mm 4 mps 754 mmHg 78%
    19:00 +9°C° 0.4 mm 5 mps 754 mmHg 83%
    20:00 +10°C° 1.1 mm 4 mps 753 mmHg 83%
    21:00 +10°C° 1.1 mm 4 mps 753 mmHg 84%
    22:00 +8°C° 1.1 mm 4 mps 753 mmHg 84%
    23:00 +8°C° 1.8 mm 4 mps 752 mmHg 85%

    26 February, Monday

    Time Temperature Precipitation Wind Pressure Humidity
    00:00 +8°C° 1.8 mm 4 mps 752 mmHg 86%
    01:00 +8°C° 1.8 mm 4 mps 751 mmHg 86%
    02:00 +8°C° 2 mm 5 mps 751 mmHg 87%
    03:00 +7°C° 2 mm 6 mps 751 mmHg 89%
    04:00 +6°C° 2 mm 7 mps 750 mmHg 90%
    05:00 +6°C° 1 mm 7 mps 750 mmHg 89%
    06:00 +6°C° 1 mm 8 mps 751 mmHg 88%
    07:00 +6°C° 1 mm 8 mps 751 mmHg 87%
    08:00 +6°C° 0.2 mm 8 mps 751 mmHg 84%
    09:00 +6°C° 0.2 mm 8 mps 752 mmHg 81%
    10:00 +6°C° 0.2 mm 8 mps 752 mmHg 78%
    11:00 +7°C° 0 mm 9 mps 752 mmHg 77%
    12:00 +7°C° 0 mm 9 mps 752 mmHg 75%
    13:00 +8°C° 0 mm 9 mps 752 mmHg 73%
    14:00 +7°C° 0.2 mm 9 mps 752 mmHg 78%
    15:00 +7°C° 0.2 mm 9 mps 752 mmHg 82%
    16:00 +6°C° 0.2 mm 10 mps 752 mmHg 86%
    17:00 +5°C° 0.2 mm 10 mps 753 mmHg 87%
    18:00 +5°C° 0.2 mm 10 mps 753 mmHg 88%
    19:00 +3°C° 0.2 mm 10 mps 753 mmHg 89%
    20:00 +2°C° 0.1 mm 10 mps 754 mmHg 88%
    21:00 +2°C° 0.1 mm 9 mps 754 mmHg 86%
    22:00 +2°C° 0.1 mm 9 mps 754 mmHg 85%
    23:00 +1°C° 0.1 mm 9 mps 754 mmHg 84%
    Show more